Location: Kershaw
(34.5481°N, 80.5823°W)
Time: 17:06:59
(UTC+00:00)

Courier 1B Rocket - Pass Details

Date: 01 October 2022
Orbit: 920 x 1202 km, 28.2° (Epoch: 08 December)

Event Time Altitude Azimuth Distance (km) Brightness Sun altitude
Rises 05:34:44 0° 267° (W) 3,549 - -58.2°
Reaches altitude 10° 05:37:40 10° 256° (WSW) 2,604 - -58.1°
Maximum altitude 05:42:52 28° 199° (SSW) 1,655 - -57.8°
Drops below altitude 10° 05:48:11 10° 142° (SE) 2,662 - -57.5°
Sets 05:51:14 0° 131° (SE) 3,642 - -57.4°
